GPS BIIR-5 (PRN 22) (26407 NORAD) Tracking and Keplerian Element Data

This shows tracking and keplerian element data for the satellite.

Feedback or suggestion? Click here.




ElementValue
Catalog26407
NameGPS BIIR-5 (PRN 22)
Epoch Orbit17994
Epoch Day34.96005602
Epoch Year2025
RAAN234.9612
Inclination54.9818
Eccentricity0.0135681
Argument of Perigee298.3288
Mean Anonmoly235.065
Mean Motion2.00563589
Decay Rate8.1E-07
L11 26407U 00040A 25034.96005602 .00000081 00000+0 00000+0 0 9992
L22 26407 54.9818 234.9612 0135681 298.3288 235.0650 2.00563589179946



Live tracking and technical data element details for GPS BIIR-5 (PRN 22) (NORAD 26407). GPS BIIR-5 (PRN 22) can be tracked NOW for your location showing map with azimuth and elevation plus other details from your city location.







IsCatalogInMostPopularTable: catalog: 26407, numindb: 690
Update: records affected: 1



GetName: 26407 GPS BIIR-5 (PRN 22)

Hit Count: updated at: Sat, 17 May 2025 06:24:58 GMT